Vorticity
nan nan nan nan nan nan nan nan nan nan nan nan nan nan nan nan nan nan nan nan nan nan nan nan nan nan nan nan nan nan nan nan nan nan nan nan nan nan nan nan nan nan nan nan nan nan nan nan nan
nan 9 9 5 5 7 12 7 6 9 12 5 0 2 4 11 20 11 12 9 4 5 7 9 9 6 5 5 4 3 4 5 4 4 4 5 6 6 6 5 5 4 6 6 6 5 6 6 nan
nan 11 12 6 3 5 9 3 9 9 4 4 6 7 4 10 5 7 12 5 6 5 8 12 10 7 5 5 4 4 4 5 4 4 4 4 5 6 5 6 5 3 6 6 5 6 5 5 nan
nan 10 8 8 6 5 6 5 7 13 7 6 9 3 14 13 8 17 7 3 4 8 9 12 9 7 5 5 5 5 5 4 4 5 4 5 5 5 6 6 4 4 6 4 5 7 5 4 nan
nan 7 6 6 7 13 10 9 5 8 14 8 5 3 7 15 16 7 4 5 6 6 8 9 9 7 7 6 5 5 5 5 4 5 6 6 5 5 5 4 5 6 5 5 5 5 4 3 nan
nan 8 5 5 12 6 5 14 10 5 4 1 5 4 10 8 4 3 7 5 5 5 6 9 7 5 6 6 5 5 5 5 6 6 6 5 6 5 5 5 4 5 6 5 5 5 5 4 nan
nan 6 3 6 14 9 8 4 6 12 7 8 2 -0 11 7 2 6 4 4 5 4 5 5 6 7 5 4 6 6 5 5 5 5 5 5 5 5 5 6 5 5 5 5 5 4 4 5 nan
nan 5 7 14 4 7 9 10 5 5 10 10 3 6 11 10 5 5 4 5 6 3 5 5 5 5 6 9 8 5 5 5 5 4 5 5 4 4 4 3 5 5 4 5 5 5 5 5 nan
nan 10 4 5 3 9 2 7 8 6 9 6 14 19 14 8 3 5 3 4 5 6 5 5 6 5 6 8 9 8 6 5 5 5 3 2 3 6 7 6 5 4 4 4 4 4 4 6 nan
nan 4 7 2 4 12 5 8 9 4 -2 10 15 14 11 6 6 3 3 6 6 6 5 5 6 5 6 6 5 6 6 6 6 6 5 4 5 8 9 10 7 4 5 7 6 5 6 6 nan
nan 1 8 5 17 8 10 10 7 4 4 14 8 3 5 1 5 7 10 9 6 4 6 7 6 6 5 4 4 5 7 7 8 7 6 5 5 7 9 8 8 9 9 7 9 9 9 6 nan
nan 12 14 9 8 7 12 0 4 13 24 15 9 6 5 4 3 10 11 7 7 6 7 6 6 5 5 5 6 7 6 7 7 8 7 6 6 8 9 8 8 6 9 8 8 11 10 6 nan
nan 9 4 10 10 11 3 7 4 10 21 8 7 5 4 4 5 7 5 9 10 6 8 8 5 4 8 7 5 7 7 7 9 9 8 5 7 8 8 9 7 6 6 7 10 10 7 7 nan
nan 12 4 5 6 12 11 2 3 1 7 14 2 6 5 5 5 3 7 10 9 9 6 9 8 3 6 7 6 8 9 7 7 8 10 9 8 8 6 6 7 8 7 7 10 10 8 8 nan
nan 9 9 9 8 3 -4 0 6 7 5 6 7 7 6 6 6 5 5 8 8 10 9 7 7 5 5 7 6 8 8 9 7 8 8 8 7 7 5 5 7 8 8 8 9 10 7 8 nan
nan 5 11 11 11 -0 -0 6 4 6 5 1 11 17 18 7 7 6 5 6 8 10 12 9 8 7 4 6 6 8 9 7 8 9 8 8 7 6 6 6 7 6 8 10 9 8 7 8 nan
nan 8 5 12 7 5 4 9 15 10 10 4 6 16 16 9 8 10 7 6 10 10 12 11 8 9 7 6 7 7 6 8 11 8 8 8 7 5 7 6 6 7 8 8 9 9 7 8 nan
nan 8 12 6 9 8 3 5 19 16 5 4 5 6 1 13 18 9 6 7 10 7 6 7 11 10 7 6 7 6 5 7 10 11 8 8 8 8 6 7 7 9 7 8 10 9 7 7 nan
nan 10 7 8 12 11 7 11 11 5 2 1 11 13 15 13 5 13 4 7 8 6 4 5 7 9 6 6 8 8 6 5 8 10 12 9 8 7 6 7 8 8 8 9 8 8 8 8 nan
nan 6 7 13 10 6 7 13 16 3 5 10 3 17 14 14 14 -2 12 14 9 7 4 6 7 7 6 7 8 10 9 8 9 6 9 11 8 7 8 7 8 8 10 9 8 7 8 11 nan
nan 7 8 10 10 5 10 6 14 9 1 13 8 18 21 3 10 12 7 3 7 8 7 6 7 7 6 7 6 7 7 9 8 8 8 9 9 9 8 6 7 9 9 9 10 9 7 7 nan
nan 7 11 9 5 10 11 12 -1 12 11 8 8 12 8 7 8 2 2 12 8 9 7 7 9 7 7 6 7 8 7 6 6 8 8 9 10 9 8 9 9 8 8 9 9 8 7 9 nan
nan 6 9 7 9 7 6 20 6 6 6 9 12 9 4 10 10 13 11 5 8 10 10 7 7 7 6 6 6 7 7 6 7 7 9 10 10 10 9 10 10 8 8 11 8 8 7 6 nan
nan 10 10 8 7 6 12 7 8 8 7 7 8 7 5 2 7 6 12 20 15 8 8 10 8 7 7 8 7 7 6 5 6 6 8 9 9 11 11 9 7 7 10 11 9 9 9 8 nan
nan 6 9 6 14 7 8 8 13 5 12 11 8 10 5 4 8 16 16 12 13 11 7 9 9 9 9 8 7 7 7 8 7 6 7 9 9 10 11 8 8 8 11 10 9 9 10 9 nan
nan 8 5 8 5 9 8 5 5 4 20 22 16 16 15 12 15 22 16 8 9 8 7 8 7 9 10 8 8 8 5 7 12 9 8 8 6 8 13 15 11 8 9 10 8 8 10 9 nan
nan 13 6 4 8 14 5 5 10 12 12 19 20 15 18 13 11 12 13 7 9 9 8 10 9 9 11 8 8 10 8 8 11 10 9 8 9 10 9 9 9 11 15 12 8 8 8 8 nan
nan 2 8 14 13 8 13 7 8 12 12 14 11 16 18 12 9 6 9 9 8 8 9 10 9 10 9 8 7 7 10 13 11 10 6 9 12 10 11 7 6 11 15 11 9 9 9 7 nan
nan 8 10 15 7 11 10 10 13 5 9 9 19 26 14 7 8 7 10 11 8 8 9 7 7 8 6 9 10 9 12 11 9 8 9 11 10 10 10 10 8 9 12 11 10 10 10 9 nan
nan nan nan nan nan nan nan nan nan nan nan nan nan nan nan nan nan nan nan nan nan nan nan nan nan nan nan nan nan nan nan nan nan nan nan nan nan nan nan nan nan nan nan nan nan nan nan nan nan
CAPE
40 0 574 688 575 200 505 792 580 687 659 416 0 0 220 572 671 870 698 587 621 776 1416 2025 2864 3093 2774 2374 2146 1688 1693 1635 1723 1699 2636 2428 1141 1281 2174 2293 2028 2679 1497 1966 1934 1957 1975 1905 2036
0 0 595 4 38 74 443 771 808 780 810 331 61 10 486 650 554 589 555 558 676 869 1188 1985 2804 3244 2872 2328 2165 2216 1808 1627 1559 2112 2213 2524 1247 1485 1821 2140 1865 1880 1803 1521 1826 1878 1941 1961 2163
0 2 494 361 130 217 459 965 612 701 1058 933 659 39 138 629 482 463 427 533 600 722 1283 2445 3238 3270 2737 2243 2191 2497 1979 1376 1796 2432 1863 2467 1639 1293 1888 2126 1854 1384 544 1294 1036 1636 1850 1878 1949
12 0 18 430 356 636 402 334 720 420 495 424 612 263 316 509 395 393 428 396 812 1180 1871 3247 3505 3533 2852 2168 2349 1924 2033 1460 2376 2112 1887 2109 2059 1140 2112 1965 1633 1751 246 156 1043 924 1633 1612 1593
285 534 228 211 378 558 475 860 295 229 650 492 472 435 386 255 263 325 308 708 910 1275 1762 2209 3074 3179 3041 2396 2594 2532 1798 1922 2313 2556 1973 2062 2017 1208 1696 1756 1385 1461 935 49 378 1091 1104 1127 1126
244 748 444 422 477 501 186 436 316 283 585 557 660 545 542 206 248 169 653 640 831 1085 1468 1878 2752 3002 3050 2459 2365 2477 2089 1929 2160 2159 1989 1966 1957 1774 1543 1655 1371 983 821 771 588 905 873 905 815
115 279 381 293 408 543 587 416 194 109 593 436 476 412 415 375 254 214 555 742 519 808 1091 1464 1572 1746 2383 2886 2191 1933 2129 2058 2245 2080 1995 2038 1934 1804 1505 1509 1408 1080 847 803 842 839 792 613 620
47 429 626 203 108 47 170 244 173 158 337 512 526 443 347 594 338 297 426 569 453 704 953 941 1223 1308 1704 1906 2025 2051 2223 1928 1647 1832 1983 1737 1492 1467 1396 1486 1320 962 909 789 576 461 454 396 553
28 332 131 180 120 104 47 34 100 157 656 681 464 387 298 648 465 412 487 478 529 474 466 650 929 1212 1203 1146 1213 1474 1493 1726 2163 1811 1657 1821 565 279 163 804 644 452 621 964 828 720 684 589 569
328 53 178 169 137 153 160 69 124 304 640 749 635 488 337 147 208 510 374 642 530 319 241 402 533 758 905 1261 1494 1261 1386 1552 1415 1429 1027 302 105 0 71 270 212 318 278 504 576 532 442 830 592
30 244 338 366 245 312 175 162 171 374 517 587 690 515 367 279 185 131 62 239 149 53 133 206 474 417 560 502 701 915 947 1072 1004 1045 1116 116 0 25 0 0 137 108 338 31 177 487 418 343 137
32 105 306 126 206 188 110 133 115 125 550 674 808 535 425 447 288 31 72 87 17 0 0 48 143 55 146 367 267 205 231 539 531 584 772 269 2 0 28 0 31 2 47 33 29 103 422 181 57
122 108 57 134 72 323 233 171 137 224 1214 762 842 646 504 368 255 135 0 0 1 0 0 0 30 2 46 290 120 125 272 412 263 435 532 264 346 198 240 311 13 13 9 0 0 297 288 298 293
26 24 10 10 57 73 329 237 90 41 355 1070 860 724 651 524 426 259 261 0 0 0 0 0 26 30 307 125 128 206 479 253 404 467 546 423 431 214 171 316 269 247 173 274 314 233 252 285 381
4 0 0 10 0 57 50 47 318 402 279 289 1084 948 869 777 602 428 345 211 0 0 0 13 37 2 222 77 372 481 467 715 172 27 18 545 239 414 210 100 135 216 318 431 390 326 262 252 467
0 0 1 3 14 47 25 131 126 77 123 400 620 826 1085 852 672 558 427 346 179 0 0 0 337 297 222 787 223 374 517 402 261 150 327 313 340 592 352 294 390 484 455 528 529 403 168 388 695
0 0 0 31 13 9 25 184 55 0 256 43 377 568 1238 1032 679 654 488 445 610 15 8 0 15 28 36 460 176 107 392 482 715 580 403 216 156 81 414 323 416 551 274 532 668 565 286 428 425
0 0 7 59 59 7 17 64 253 59 223 319 0 362 1126 1111 618 659 512 545 170 202 96 60 184 35 100 215 166 127 152 293 860 878 516 264 249 239 688 629 686 679 494 381 440 291 467 613 375
0 9 14 0 49 58 29 1 348 223 152 1 297 33 1165 1133 1277 805 743 538 149 133 64 329 134 256 81 55 52 27 9 336 333 614 951 723 586 454 362 559 735 799 567 364 388 312 396 551 480
3 25 20 84 108 22 6 0 488 272 2 156 51 64 845 439 1168 679 1330 898 376 232 114 424 115 81 0 0 0 0 31 268 442 188 89 844 648 552 510 637 995 720 579 495 503 440 380 531 556
0 0 13 20 103 13 16 5 291 98 146 64 1 7 480 723 624 469 210 879 875 506 417 316 187 31 0 0 0 0 0 8 262 72 0 193 981 1025 756 745 1250 531 304 268 394 403 415 271 345
0 0 0 47 0 0 1 1 350 200 69 101 46 0 56 149 1080 791 67 449 848 661 427 350 251 6 0 0 0 0 0 0 19 304 103 455 776 982 1310 1202 1178 579 281 370 311 674 464 372 254
0 0 4 0 0 0 0 81 179 7 1 1 4 0 1 7 6 55 806 941 639 1049 556 388 426 37 0 0 0 0 0 0 24 289 535 538 604 956 783 1051 781 745 319 346 344 406 581 659 539
0 0 0 0 0 1 0 0 92 8 0 19 20 0 0 215 5 2 1243 1437 1241 1381 1083 617 496 262 161 0 0 0 0 147 284 216 156 384 674 740 846 768 645 578 481 490 476 506 397 490 962
0 0 0 0 1 1 2 0 0 46 9 0 52 44 3 5 0 57 563 1740 1672 1607 1598 1417 569 331 281 32 0 0 129 347 242 117 232 502 635 987 1048 715 573 350 576 576 473 507 635 704 638
0 0 0 0 0 1 9 0 64 0 0 23 139 13 4 26 715 1832 1826 1654 1662 1621 1560 1415 1036 787 565 378 236 254 471 535 320 115 450 687 423 624 612 880 717 478 703 818 588 765 977 855 922
0 0 0 0 0 1 0 19 8 10 0 0 58 930 1269 1322 1458 1380 1671 1560 1675 1586 1503 1433 1233 1189 992 796 678 682 847 687 734 640 657 547 295 749 495 13 8 384 545 686 1053 924 739 948 819
0 0 0 0 0 0 127 25 67 13 141 111 43 0 1043 1469 1625 1485 1573 1857 1721 1660 1386 1346 1403 1266 1202 982 1237 1253 1092 994 877 0 82 253 975 1058 1223 16 11 605 752 806 811 938 990 904 904
0 0 0 0 0 0 153 1 0 15 18 3 0 669 1357 1515 1597 1488 1349 1764 1750 1606 1400 1164 1084 1168 1393 1212 1360 1204 1360 1293 978 46 316 894 1495 1580 1662 1599 1314 1031 1000 1212 1172 1079 1229 1056 900
0 0 0 0 0 0 6 10 0 46 88 64 73 202 767 1398 1565 1447 1396 1194 1274 1606 1490 1297 1289 1518 1388 1445 1633 1343 1442 1612 1471 1244 1591 1720 1643 1958 1934 1856 1733 1590 1117 1303 1287 1380 1639 1390 1221